Weather History for KMLS - November, 2013

Change the Weather History Date:

Sunday, November 10, 2013

  Actual Average Record
Temperature  
Mean Temperature 31 °F 35 °F  
Max Temperature 44 °F 46 °F 72 °F (2007)
Min Temperature 17 °F 24 °F -13 °F (1986)
Degree Days  
Heating Degree Days 34 30  
Month to date heating degree days 285 276  
Since 1 July heating degree days 990 1087  
Cooling Degree Days 0 0  
Month to date cooling degree days 0 0  
Year to date cooling degree days 877 730  
Moisture  
Dew Point 22 °F    
Average Humidity 69    
Maximum Humidity 84    
Minimum Humidity 53    
Precipitation  
Precipitation T in 0.01 in 0.52 in (1978)
Month to date precipitation 0.02 0.16  
Year to date precipitation 16.42 11.92  
Sea Level Pressure  
Sea Level Pressure 30.28 in    
Wind  
Wind Speed 11 mph (NE)    
Max Wind Speed 22 mph    
Max Gust Speed 27 mph    
Visibility 8 miles    
Events Snow    
T = Trace of Precipitation, MM = Missing Value Source: NWS Daily Summary

Daily Weather History Graph

Daily Weather History Graph

Search for Another Location

Airport or City:

Trip Planner

Search our weather history database for the weather conditions in past years. The results will help you decide how hot, cold, wet, or windy it might be!

Date:

Astronomy

Nov. 10, 2013 Rise Set
Actual Time 6:58 AM MST 4:35 PM MST
Civil Twilight 6:26 AM MST 5:08 PM MST
Nautical Twilight 5:49 AM MST 5:44 PM MST
Astronomical Twilight 5:14 AM MST 6:19 PM MST
Moon 1:05 PM MST (11/10) No Moon Set
Length of Visible Light 10h 42m
Length of Day
9h 37m
First Quarter, 56% of the Moon is Illuminated
Nov 10
First Quarter
Nov 17
Full
Nov 25
Last Quarter
Dec 2
New
Dec 9
First Quarter

Hourly Weather History & Observations

Time (MST) Temp. Windchill Dew Point Humidity Pressure Visibility Wind Dir Wind Speed Gust Speed Precip Events Conditions
12:53 AM 30.9 °F 25.2 °F 23.0 °F 72% 30.21 in 10.0 mi SSE 5.8 mph - N/A   Clear
1:53 AM 30.9 °F 24.3 °F 24.1 °F 76% 30.18 in 10.0 mi SE 6.9 mph - N/A   Mostly Cloudy
2:53 AM 32.0 °F 25.6 °F 24.1 °F 73% 30.17 in 10.0 mi SE 6.9 mph - N/A   Overcast
3:53 AM 33.1 °F 26.1 °F 24.1 °F 70% 30.17 in 10.0 mi SSE 8.1 mph - N/A   Overcast
4:53 AM 34.0 °F 29.8 °F 25.0 °F 70% 30.17 in 10.0 mi SSE 4.6 mph - N/A   Overcast
5:53 AM 33.1 °F 27.7 °F 26.1 °F 75% 30.18 in 10.0 mi SSE 5.8 mph - N/A   Overcast
6:53 AM 33.1 °F 30.0 °F 25.0 °F 72% 30.19 in 10.0 mi South 3.5 mph - N/A   Overcast
7:53 AM 34.0 °F - 26.1 °F 73% 30.21 in 10.0 mi Calm Calm - N/A   Overcast
8:53 AM 37.0 °F 34.5 °F 27.0 °F 67% 30.21 in 10.0 mi West 3.5 mph - N/A   Overcast
9:53 AM 39.0 °F 34.8 °F 28.0 °F 65% 30.21 in 10.0 mi WNW 5.8 mph - N/A   Overcast
10:53 AM 43.0 °F 36.8 °F 27.0 °F 53% 30.22 in 10.0 mi North 11.5 mph - N/A   Overcast
11:53 AM 43.0 °F 37.2 °F 28.0 °F 56% 30.20 in 10.0 mi NNE 10.4 mph - N/A   Mostly Cloudy
12:53 PM 41.0 °F 33.5 °F 27.0 °F 57% 30.21 in 10.0 mi NE 13.8 mph - N/A   Mostly Cloudy
1:53 PM 37.9 °F 28.5 °F 27.0 °F 65% 30.22 in 10.0 mi NE 17.3 mph - N/A   Mostly Cloudy
2:53 PM 33.1 °F 21.5 °F 26.1 °F 75% 30.25 in 10.0 mi NE 19.6 mph - N/A   Overcast
3:53 PM 30.0 °F 17.5 °F 24.1 °F 79% 30.27 in 10.0 mi NE 19.6 mph - N/A   Mostly Cloudy
4:02 PM 30.0 °F 19.1 °F 24.1 °F 79% 30.19 in 10.0 mi NE 15.0 mph - N/A   Overcast
4:53 PM 28.9 °F 16.5 °F 23.0 °F 78% 30.31 in 10.0 mi NE 18.4 mph - N/A   Overcast
5:53 PM 27.0 °F 14.3 °F 21.9 °F 81% 30.32 in 10.0 mi NE 17.3 mph - N/A   Overcast
6:53 PM 26.1 °F 13.6 °F 21.0 °F 81% 30.35 in 10.0 mi NE 16.1 mph - 0.00 in   Overcast
7:43 PM 24.1 °F 11.5 °F 19.0 °F 81% 30.28 in 10.0 mi NE 15.0 mph - N/A   Overcast
7:53 PM 23.0 °F 9.6 °F 18.0 °F 81% 30.38 in 10.0 mi NE 16.1 mph - N/A   Overcast
8:16 PM 21.9 °F 7.3 °F 18.0 °F 85% 30.29 in 4.0 mi NE 18.4 mph - 0.00 in Snow Light Snow
8:53 PM 21.0 °F 7.1 °F 17.1 °F 85% 30.41 in 10.0 mi NE 16.1 mph - 0.00 in   Overcast
9:15 PM 19.9 °F 5.2 °F 16.0 °F 85% 30.34 in 2.0 mi NE 17.3 mph - 0.00 in Snow Light Snow
9:20 PM 19.9 °F 5.7 °F 16.0 °F 85% 30.33 in 1.8 mi NE 16.1 mph - 0.00 in Snow Light Snow
9:53 PM 19.0 °F 4.5 °F 16.0 °F 88% 30.43 in 2.5 mi NE 16.1 mph - 0.00 in Snow Light Snow
10:02 PM 19.0 °F 4.5 °F 15.1 °F 85% 30.33 in 3.0 mi NE 16.1 mph - 0.00 in Snow Light Snow
10:53 PM 19.0 °F 6.1 °F 15.1 °F 85% 30.45 in 3.0 mi NNE 12.7 mph - 0.00 in Snow Light Snow
11:02 PM 19.0 °F 5.6 °F 15.1 °F 85% 30.36 in 2.5 mi NNE 13.8 mph - 0.00 in Snow Light Snow
11:10 PM 19.0 °F 5.0 °F 15.1 °F 85% 30.36 in 1.2 mi NE 15.0 mph - 0.00 in Snow Light Snow
11:41 PM 18.0 °F 3.1 °F 14.0 °F 84% 30.37 in 3.0 mi NNE 16.1 mph - 0.00 in Snow Light Snow
11:53 PM 17.1 °F 3.0 °F 14.0 °F 88% 30.47 in 4.0 mi NE 13.8 mph - 0.00 in Snow Light Snow